This demonstration page uses our WeatherBlox Daily Observations layout. Learn more.

Left ArrowRight Arrow

47.50024, -111.30081

Hourly Observations for April 12, 2022

Temp ( °F °C ) Dew Point ( °F °C ) Humidity (%) Winds ( mph kmh ) Pressure ( in mb ) Visibility ( mi km ) Precip ( " mm )
12:53 am 00:53 Cloudy 24 -4.4 11 -11.7 57 57 NE 20 31 29.86 1011 10 16 0.00 0.00
1:25 am 01:25 Windy with Snow Likely 22 -5.6 15 -9.4 75 75 NE 28 44 29.94 1014 2 3 0.00 0.00
1:47 am 01:47 Windy with Snow Likely 21 -6 18 -8 86 86 NE 21 33 29.95 1014 1 2 0.00 0.00
1:53 am 01:53 Windy with Snow Likely 21 -6.1 17 -8.3 85 85 NNE 23 37 29.90 1013 2 2 0.00 0.00
2:01 am 02:01 Mostly Cloudy with Light Snow 21 -6.1 17 -8.3 85 85 NNE 22 35 29.96 1015 1 2 0.00 0.00
2:18 am 02:18 Mostly Cloudy with Light Snow 20 -6.7 17 -8.3 89 89 NE 20 31 29.97 1015 1 1 0.02 0.51
2:26 am 02:26 Mostly Cloudy with Light Snow 20 -6.7 17 -8.3 89 89 NE 22 35 29.97 1015 1 2 0.02 0.51
2:44 am 02:44 Windy with Snow Likely 20 -6.7 17 -8.3 89 89 NE 22 35 29.97 1015 1 2 0.03 0.76
2:53 am 02:53 Windy with Snow Likely 20 -6.7 17 -8.3 89 89 NE 24 39 29.92 1013 1 2 0.03 0.76
3:28 am 03:28 Mostly Cloudy with Light Snow 20 -6.7 17 -8.3 89 89 NNE 21 33 29.98 1015 1 1 0.02 0.51
3:53 am 03:53 Mostly Cloudy with Light Snow 20 -6.7 17 -8.3 89 89 NNE 23 37 29.93 1014 1 1 0.03 0.76
4:00 am 04:00 Windy with Snow Likely 20 -6.7 16 -8.9 85 85 NNE 21 33 30.01 1016 1 1 0.00 0.00
4:48 am 04:48 Mostly Cloudy with Light Snow 19 -7 16 -9 86 86 NNE 22 35 30.04 1017 1 1 0.03 0.76
4:53 am 04:53 Mostly Cloudy with Light Snow 19 -7.2 16 -8.9 88 88 NNE 21 33 29.97 1015 1 1 0.03 0.76
5:53 am 05:53 Windy with Snow Likely 17 -8.3 13 -10.6 84 84 NNE 22 35 30.02 1017 1 1 0.02 0.51
6:02 am 06:02 Windy with Snow Likely 17 -8.3 13 -10.6 84 84 NE 21 33 30.10 1019 2 2 0.00 0.00
6:21 am 06:21 Windy with Snow Likely 16 -8.9 13 -10.6 88 88 NE 20 31 30.12 1020 1 2 0.00 0.00
6:34 am 06:34 Cloudy with Light Snow 16 -8.9 13 -10.6 88 88 NE 17 28 30.13 1020 2 2 0.01 0.25
6:53 am 06:53 Windy with Snow Likely 16 -8.9 12 -11.1 84 84 NE 21 33 30.06 1018 1 2 0.01 0.25
7:53 am 07:53 Cloudy with Light Snow 16 -8.9 13 -10.6 88 88 NNE 15 24 30.10 1019 1 2 0.01 0.25
7:57 am 07:57 Cloudy with Light Snow 16 -8.9 13 -10.6 88 88 NNE 16 26 30.19 1022 1 2 0.00 0.00
8:10 am 08:10 Cloudy with Light Snow 16 -8.9 12 -11.1 84 84 NE 18 30 30.19 1022 1 2 0.00 0.00
8:19 am 08:19 Cloudy with Light Snow 16 -8.9 12 -11.1 84 84 NNE 15 24 30.19 1022 1 2 0.01 0.25
8:53 am 08:53 Cloudy with Light Snow 17 -8.3 13 -10.6 84 84 N 10 17 30.12 1020 1 1 0.01 0.25
9:09 am 09:09 Mostly Cloudy with Light Snow 17 -8.3 13 -10.6 84 84 NNE 12 19 30.20 1023 1 1 0.01 0.25
9:41 am 09:41 Cloudy with Light Snow 18 -7.8 13 -10.6 81 81 N 14 22 30.20 1023 1 1 0.02 0.51
9:51 am 09:51 Cloudy with Light Snow 18 -8 12 -11 79 79 NNE 16 26 30.21 1023 1 1 0.02 0.51
9:53 am 09:53 Cloudy with Light Snow 18 -7.8 13 -10.6 81 81 NNE 15 24 30.14 1021 1 1 0.02 0.51
10:17 am 10:17 Mostly Cloudy with Snow 18 -7.8 14 -10 84 84 N 13 20 30.21 1023 0 0 0.01 0.25
10:30 am 10:30 Mostly Cloudy with Snow 17 -8.3 13 -10.6 84 84 NNE 16 26 30.22 1023 0 0 0.02 0.51
10:53 am 10:53 Mostly Cloudy with Snow 18 -7.8 13 -10.6 81 81 NNE 14 22 30.16 1021 0 0 0.03 0.76
11:01 am 11:01 Mostly Cloudy with Light Snow 18 -7.8 13 -10.6 81 81 NNE 13 20 30.22 1023 0 0 0.00 0.00
11:47 am 11:47 Cloudy with Light Snow 18 -8 12 -11 79 79 NNE 17 28 30.24 1024 2 2 0.01 0.25
11:53 am 11:53 Cloudy with Light Snow 19 -7.2 12 -11.1 74 74 NNE 18 30 30.18 1022 2 2 0.01 0.25
12:12 pm 12:12 Windy with Snow Likely 18 -7.8 13 -10.6 81 81 NNE 20 31 30.23 1024 1 2 0.00 0.00
12:22 pm 12:22 Cloudy with Light Snow 19 -7.2 12 -11.1 74 74 NNE 15 24 30.23 1024 3 5 0.00 0.00
12:30 pm 12:30 Cloudy 19 -7.2 11 -11.7 71 71 NNE 16 26 30.23 1024 3 5 0.00 0.00
12:36 pm 12:36 Cloudy 19 -7.2 12 -11.1 74 74 NNE 17 28 30.23 1024 1 2 0.00 0.00
12:41 pm 12:41 Cloudy with Light Snow 19 -7.2 13 -10.6 77 77 NNE 16 26 30.23 1024 3 4 0.00 0.00
12:43 pm 12:43 Cloudy with Light Snow 19 -7.2 13 -10.6 77 77 NNE 17 28 30.23 1024 2 3 0.00 0.00
12:53 pm 12:53 Cloudy with Light Snow 19 -7.2 12 -11.1 74 74 NNE 17 28 30.19 1022 2 3 0.00 0.00
1:06 pm 13:06 Cloudy with Haze 20 -6.7 13 -10.6 74 74 NE 15 24 30.23 1024 3 5 0.00 0.00
1:15 pm 13:15 Cloudy with Light Snow 19 -7.2 13 -10.6 77 77 NNE 14 22 30.25 1024 2 2 0.00 0.00
1:23 pm 13:23 Cloudy with Light Snow 19 -7.2 13 -10.6 77 77 NNE 17 28 30.24 1024 3 5 0.00 0.00
1:41 pm 13:41 Cloudy 20 -6.7 12 -11.1 71 71 NNE 15 24 30.24 1024 2 3 0.00 0.00
1:53 pm 13:53 Cloudy with Light Snow 18 -7.8 12 -11.1 77 77 NNE 16 26 30.22 1024 2 3 0.00 0.00
2:00 pm 14:00 Cloudy with Light Snow 19 -7.2 12 -11.1 74 74 NNE 15 24 30.26 1025 1 2 0.00 0.00
2:07 pm 14:07 Cloudy with Snow 19 -7.2 13 -10.6 77 77 NNE 15 24 30.26 1025 1 1 0.00 0.00
2:37 pm 14:37 Cloudy with Light Snow 18 -7.8 12 -11.1 77 77 NNE 14 22 30.28 1025 1 2 0.00 0.00
2:45 pm 14:45 Cloudy with Light Snow 18 -7.8 12 -11.1 77 77 N 16 26 30.28 1025 0 0 0.00 0.00
2:53 pm 14:53 Cloudy with Snow 18 -7.8 13 -10.6 81 81 N 15 24 30.25 1024 1 1 0.00 0.00
3:04 pm 15:04 Mostly Cloudy with Light Snow 17 -8.3 11 -11.7 77 77 N 15 24 30.29 1026 1 2 0.00 0.00
3:19 pm 15:19 Mostly Cloudy with Light Snow 18 -7.8 13 -10.6 81 81 N 16 26 30.29 1026 1 1 0.00 0.00
3:25 pm 15:25 Cloudy with Light Snow 18 -7.8 11 -11.7 74 74 N 16 26 30.29 1026 2 2 0.00 0.00
3:28 pm 15:28 Cloudy with Light Snow 18 -7.8 11 -11.7 74 74 N 16 26 30.29 1026 3 5 0.00 0.00
3:41 pm 15:41 Cloudy with Light Snow 18 -7.8 11 -11.7 74 74 N 16 26 30.29 1026 3 4 0.00 0.00
3:49 pm 15:49 Cloudy with Light Snow 18 -8 10 -12 73 73 N 15 24 30.30 1026 2 3 0.00 0.00
3:53 pm 15:53 Cloudy with Light Snow 18 -7.8 11 -11.7 74 74 N 14 22 30.25 1025 3 4 0.00 0.00
4:02 pm 16:02 Cloudy with Light Snow 18 -7.8 11 -11.7 74 74 N 17 28 30.29 1026 2 2 0.00 0.00
4:07 pm 16:07 Cloudy with Light Snow 17 -8.3 12 -11.1 80 80 N 15 24 30.31 1026 1 1 0.00 0.00
4:17 pm 16:17 Cloudy with Snow 17 -8.3 12 -11.1 80 80 N 16 26 30.31 1026 1 1 0.00 0.00
4:24 pm 16:24 Cloudy with Light Snow 17 -8.3 11 -11.7 77 77 N 14 22 30.31 1026 1 2 0.00 0.00
4:31 pm 16:31 Cloudy with Light Snow 17 -8.3 11 -11.7 77 77 N 17 28 30.31 1026 2 3 0.00 0.00
4:53 pm 16:53 Cloudy with Light Snow 17 -8.3 11 -11.7 77 77 N 14 22 30.27 1025 3 4 0.00 0.00
5:20 pm 17:20 Cloudy with Light Snow 16 -8.9 11 -11.7 80 80 NNW 14 22 30.33 1027 1 2 0.00 0.00
5:30 pm 17:30 Cloudy with Light Snow 16 -8.9 12 -11.1 84 84 N 16 26 30.34 1027 1 1 0.00 0.00
5:53 pm 17:53 Mostly Cloudy with Snow 16 -8.9 12 -11.1 84 84 N 14 22 30.30 1026 1 1 0.01 0.25
6:03 pm 18:03 Mostly Cloudy with Light Snow 16 -8.9 11 -11.7 80 80 N 16 26 30.35 1028 1 1 0.00 0.00
6:10 pm 18:10 Cloudy with Light Snow 16 -8.9 11 -11.7 80 80 N 14 22 30.35 1028 0 0 0.00 0.00
6:20 pm 18:20 Cloudy with Light Snow 16 -8.9 11 -11.7 80 80 N 13 20 30.35 1028 0 0 0.00 0.00
6:30 pm 18:30 Mostly Cloudy with Light Snow 15 -9.4 11 -11.7 84 84 N 16 26 30.37 1028 1 1 0.00 0.00
6:53 pm 18:53 Cloudy with Light Snow 15 -9.4 10 -12.2 80 80 N 14 22 30.32 1027 1 2 0.00 0.00
7:00 pm 19:00 Cloudy with Light Snow 15 -9.4 10 -12.2 80 80 N 14 22 30.37 1028 1 1 0.00 0.00
7:07 pm 19:07 Cloudy with Light Snow 15 -9.4 10 -12.2 80 80 N 12 19 30.37 1028 1 1 0.01 0.25
7:53 pm 19:53 Cloudy with Light Snow 15 -9.4 11 -11.7 84 84 NNE 9 15 30.33 1027 1 1 0.02 0.51
8:03 pm 20:03 Cloudy with Light Snow 14 -10 11 -11.7 88 88 N 7 11 30.39 1029 1 2 0.00 0.00
8:18 pm 20:18 Cloudy with Light Snow 14 -10 11 -11.7 88 88 N 10 17 30.39 1029 1 2 0.00 0.00
8:34 pm 20:34 Mostly Cloudy with Light Snow 14 -10 11 -11.7 88 88 N 10 17 30.39 1029 1 1 0.01 0.25
8:53 pm 20:53 Cloudy with Light Snow 14 -10 11 -11.7 88 88 N 9 15 30.33 1027 1 1 0.02 0.51
9:01 pm 21:01 Cloudy with Light Snow 14 -10 11 -11.7 88 88 N 10 17 30.40 1029 1 1 0.00 0.00
9:15 pm 21:15 Cloudy with Light Snow 14 -10 11 -11.7 88 88 N 10 17 30.40 1029 1 2 0.00 0.00
9:36 pm 21:36 Cloudy with Light Snow 14 -10 11 -11.7 88 88 NNW 8 13 30.40 1029 1 1 0.01 0.25
9:53 pm 21:53 Mostly Cloudy with Light Snow 14 -10 11 -11.7 88 88 N 7 11 30.34 1027 1 1 0.01 0.25
10:00 pm 22:00 Mostly Cloudy with Light Snow 14 -10 12 -11.1 92 92 N 7 11 30.40 1029 1 1 0.01 0.25
10:41 pm 22:41 Cloudy with Light Snow 14 -10 11 -11.7 88 88 N 5 7 30.40 1029 1 1 0.02 0.51
10:53 pm 22:53 Cloudy with Light Snow 14 -10 11 -11.7 88 88 N 5 7 30.33 1027 1 1 0.02 0.51
11:05 pm 23:05 Cloudy with Light Snow 14 -10 11 -11.7 88 88 N 6 9 30.39 1029 1 1 0.01 0.25
11:30 pm 23:30 Cloudy with Light Snow 14 -10 11 -11.7 88 88 NNW 6 9 30.39 1029 1 1 0.01 0.25
11:53 pm 23:53 Cloudy with Light Snow 14 -10 11 -11.7 88 88 N 5 7 30.32 1027 1 1 0.02 0.51

Powered by AerisWeather